Time,TemperatureF,DewpointF,PressureIn,WindDirection,WindDirectionDegrees,WindSpeedMPH,WindSpeedGustMPH,Humidity,HourlyPrecipIn,Conditions,Clouds,dailyrainin,SolarRadiationWatts/m^2,SoftwareType,DateUTC
2013-09-24 00:22:00,44.0,34.0,-100.00,NNE,25,2.0,6.0,68,0.00,,,0.01,0.000000,,2013-09-24 06:22:00,
2013-09-24 00:32:00,44.0,34.0,-100.00,NNE,25,2.0,6.0,68,0.00,,,0.01,0.000000,,2013-09-24 06:32:00,
2013-09-24 00:42:00,44.0,34.0,-100.00,NNE,25,2.0,6.0,68,0.00,,,0.01,0.000000,,2013-09-24 06:42:00,
2013-09-24 00:52:00,44.0,34.0,-100.00,NNE,25,2.0,6.0,68,0.00,,,0.01,0.000000,,2013-09-24 06:52:00,
2013-09-24 01:21:00,44.0,34.0,-100.00,NNE,24,5.0,6.0,69,0.00,,,-99.99,0.000000,,2013-09-24 07:21:00,
2013-09-24 01:32:00,44.0,34.0,-100.00,NNE,24,5.0,6.0,69,0.00,,,-99.99,0.000000,,2013-09-24 07:32:00,
2013-09-24 01:43:00,44.0,34.0,-100.00,NNE,24,5.0,6.0,69,0.00,,,-99.99,0.000000,,2013-09-24 07:43:00,
2013-09-24 01:52:00,44.0,34.0,-100.00,NNE,24,5.0,6.0,69,0.00,,,-99.99,0.000000,,2013-09-24 07:52:00,
2013-09-24 02:22:00,42.0,35.0,-100.00,North,7,3.0,7.0,75,0.00,,,0.01,0.000000,,2013-09-24 08:22:00,
2013-09-24 02:32:00,42.0,35.0,-100.00,North,7,3.0,7.0,75,0.00,,,0.01,0.000000,,2013-09-24 08:32:00,
2013-09-24 02:42:00,42.0,35.0,-100.00,North,7,3.0,7.0,75,0.00,,,0.01,0.000000,,2013-09-24 08:42:00,
2013-09-24 02:52:00,42.0,35.0,-100.00,North,7,3.0,7.0,75,0.00,,,0.01,0.000000,,2013-09-24 08:52:00,
2013-09-24 03:21:00,43.0,34.0,-100.00,North,2,5.0,8.0,71,0.00,,,0.01,0.000000,,2013-09-24 09:21:00,
2013-09-24 03:33:00,43.0,34.0,-100.00,North,2,5.0,8.0,71,0.00,,,0.01,0.000000,,2013-09-24 09:33:00,
2013-09-24 03:43:00,43.0,34.0,-100.00,North,2,5.0,8.0,71,0.00,,,0.01,0.000000,,2013-09-24 09:43:00,
2013-09-24 03:53:00,43.0,34.0,-100.00,North,2,5.0,8.0,71,0.00,,,0.01,0.000000,,2013-09-24 09:53:00,
2013-09-24 04:23:00,42.0,34.0,-100.00,NNE,13,4.0,5.0,73,0.00,,,0.01,0.000000,,2013-09-24 10:23:00,
2013-09-24 04:33:00,42.0,34.0,-100.00,NNE,13,4.0,5.0,73,0.00,,,0.01,0.000000,,2013-09-24 10:33:00,
2013-09-24 04:42:00,42.0,34.0,-100.00,NNE,13,4.0,5.0,73,0.00,,,0.01,0.000000,,2013-09-24 10:42:00,
2013-09-24 04:53:00,42.0,34.0,-100.00,NNE,13,4.0,5.0,73,0.00,,,0.01,0.000000,,2013-09-24 10:53:00,
2013-09-24 05:22:00,41.0,34.0,-100.00,NNE,13,4.0,7.0,75,0.00,,,0.01,0.000000,,2013-09-24 11:22:00,
2013-09-24 05:33:00,41.0,34.0,-100.00,NNE,13,4.0,7.0,75,0.00,,,0.01,0.000000,,2013-09-24 11:33:00,
2013-09-24 05:42:00,41.0,34.0,-100.00,NNE,13,4.0,7.0,75,0.00,,,0.01,0.000000,,2013-09-24 11:42:00,
2013-09-24 05:52:00,41.0,34.0,-100.00,NNE,13,4.0,7.0,75,0.00,,,0.01,0.000000,,2013-09-24 11:52:00,
2013-09-24 06:22:00,40.0,33.0,-100.00,NNE,13,5.0,7.0,77,0.00,,,0.00,0.000000,,2013-09-24 12:22:00,
2013-09-24 06:32:00,40.0,33.0,-100.00,NNE,13,5.0,7.0,77,0.00,,,0.00,0.000000,,2013-09-24 12:32:00,
2013-09-24 06:42:00,40.0,33.0,-100.00,NNE,13,5.0,7.0,77,0.00,,,0.00,0.000000,,2013-09-24 12:42:00,
2013-09-24 06:52:00,40.0,33.0,-100.00,NNE,13,5.0,7.0,77,0.00,,,0.00,0.000000,,2013-09-24 12:52:00,
2013-09-24 07:22:00,40.0,32.0,-100.00,NE,34,3.0,5.0,74,0.00,,,0.00,0.000000,,2013-09-24 13:22:00,
2013-09-24 07:32:00,40.0,32.0,-100.00,NE,34,3.0,5.0,74,0.00,,,0.00,0.000000,,2013-09-24 13:32:00,
2013-09-24 07:42:00,40.0,32.0,-100.00,NE,34,3.0,5.0,74,0.00,,,0.00,0.000000,,2013-09-24 13:42:00,
2013-09-24 07:52:00,40.0,32.0,-100.00,NE,34,3.0,5.0,74,0.00,,,0.00,0.000000,,2013-09-24 13:52:00,
2013-09-24 09:53:00,50.0,38.0,-100.00,South,188,2.0,4.0,62,0.00,,,0.00,262.000000,,2013-09-24 15:53:00,
2013-09-24 10:43:00,55.0,37.0,-100.00,South,178,2.0,6.0,51,0.00,,,0.00,472.000000,,2013-09-24 16:43:00,
2013-09-24 10:53:00,55.0,37.0,-100.00,South,178,2.0,6.0,51,0.00,,,0.00,472.000000,,2013-09-24 16:53:00,
2013-09-24 11:43:00,60.0,37.0,-100.00,SSE,160,4.0,8.0,43,0.00,,,0.00,653.000000,,2013-09-24 17:43:00,
2013-09-24 11:53:00,60.0,37.0,-100.00,SSE,160,4.0,8.0,43,0.00,,,0.00,653.000000,,2013-09-24 17:53:00,
2013-09-24 12:22:00,63.0,35.0,-100.00,SE,131,4.0,8.0,35,0.00,,,0.00,791.000000,,2013-09-24 18:22:00,
2013-09-24 12:32:00,63.0,35.0,-100.00,SE,131,4.0,8.0,35,0.00,,,0.00,791.000000,,2013-09-24 18:32:00,
2013-09-24 12:42:00,63.0,35.0,-100.00,SE,131,4.0,8.0,35,0.00,,,0.00,791.000000,,2013-09-24 18:42:00,
2013-09-24 12:52:00,63.0,35.0,-100.00,SE,131,4.0,8.0,35,0.00,,,0.00,791.000000,,2013-09-24 18:52:00,
2013-09-24 13:22:00,67.0,38.0,-100.00,SW,226,4.0,10.0,34,0.00,,,0.00,866.000000,,2013-09-24 19:22:00,
2013-09-24 13:32:00,67.0,38.0,-100.00,SW,226,4.0,10.0,34,0.00,,,0.00,866.000000,,2013-09-24 19:32:00,
2013-09-24 13:42:00,67.0,38.0,-100.00,SW,226,4.0,10.0,34,0.00,,,0.00,866.000000,,2013-09-24 19:42:00,
2013-09-24 13:52:00,67.0,38.0,-100.00,SW,226,4.0,10.0,34,0.00,,,0.00,866.000000,,2013-09-24 19:52:00,
2013-09-24 14:22:00,69.0,29.0,-100.00,South,175,4.0,9.0,22,0.00,,,0.00,877.000000,,2013-09-24 20:22:00,
2013-09-24 14:32:00,69.0,29.0,-100.00,South,175,4.0,9.0,22,0.00,,,0.00,877.000000,,2013-09-24 20:32:00,
2013-09-24 14:42:00,69.0,29.0,-100.00,South,175,4.0,9.0,22,0.00,,,0.00,877.000000,,2013-09-24 20:42:00,
2013-09-24 14:52:00,69.0,29.0,-100.00,South,175,4.0,9.0,22,0.00,,,0.00,877.000000,,2013-09-24 20:52:00,
2013-09-24 15:22:00,70.0,34.0,-100.00,South,184,5.0,10.0,26,0.00,,,0.00,818.000000,,2013-09-24 21:22:00,
2013-09-24 15:33:00,70.0,34.0,-100.00,South,184,5.0,10.0,26,0.00,,,0.00,818.000000,,2013-09-24 21:33:00,
2013-09-24 15:43:00,70.0,34.0,-100.00,South,184,5.0,10.0,26,0.00,,,0.00,818.000000,,2013-09-24 21:43:00,
2013-09-24 15:54:00,70.0,34.0,-100.00,South,184,5.0,10.0,26,0.00,,,0.00,818.000000,,2013-09-24 21:54:00,
2013-09-24 16:23:00,72.0,32.0,-100.00,SW,214,5.0,10.0,23,0.00,,,0.00,697.000000,,2013-09-24 22:23:00,
2013-09-24 16:34:00,72.0,32.0,-100.00,SW,214,5.0,10.0,23,0.00,,,0.00,697.000000,,2013-09-24 22:34:00,
2013-09-24 16:43:00,72.0,32.0,-100.00,SW,214,5.0,10.0,23,0.00,,,0.00,697.000000,,2013-09-24 22:43:00,
2013-09-24 16:53:00,72.0,32.0,-100.00,SW,214,5.0,10.0,23,0.00,,,0.00,697.000000,,2013-09-24 22:53:00,
2013-09-24 17:22:00,71.0,27.0,-100.00,SSW,194,6.0,11.0,19,0.00,,,0.00,530.000000,,2013-09-24 23:22:00,
2013-09-24 17:33:00,71.0,27.0,-100.00,SSW,194,6.0,11.0,19,0.00,,,0.00,530.000000,,2013-09-24 23:33:00,
2013-09-24 17:43:00,71.0,27.0,-100.00,SSW,194,6.0,11.0,19,0.00,,,0.00,530.000000,,2013-09-24 23:43:00,
2013-09-24 17:53:00,71.0,27.0,-100.00,SSW,194,6.0,11.0,19,0.00,,,0.00,530.000000,,2013-09-24 23:53:00,
2013-09-24 18:22:00,69.0,24.0,-100.00,SSW,197,5.0,10.0,18,0.00,,,0.00,329.000000,,2013-09-25 00:22:00,
2013-09-24 18:32:00,69.0,24.0,-100.00,SSW,197,5.0,10.0,18,0.00,,,0.00,329.000000,,2013-09-25 00:32:00,
2013-09-24 18:42:00,69.0,24.0,-100.00,SSW,197,5.0,10.0,18,0.00,,,0.00,329.000000,,2013-09-25 00:42:00,
2013-09-24 19:21:00,65.0,29.0,-100.00,NNW,345,2.0,7.0,26,0.00,,,0.00,111.000000,,2013-09-25 01:21:00,
2013-09-24 19:32:00,65.0,29.0,-100.00,NNW,345,2.0,7.0,26,0.00,,,0.00,111.000000,,2013-09-25 01:32:00,
2013-09-24 19:42:00,65.0,29.0,-100.00,NNW,345,2.0,7.0,26,0.00,,,0.00,111.000000,,2013-09-25 01:42:00,
2013-09-24 19:52:00,65.0,29.0,-100.00,NNW,345,2.0,7.0,26,0.00,,,0.00,111.000000,,2013-09-25 01:52:00,
2013-09-24 21:44:00,56.0,28.0,-100.00,NNE,18,7.0,10.0,34,0.00,,,0.00,0.000000,,2013-09-25 03:44:00,